DELTA 1 R/B, 2436

Orbit data source: Space-Track

DELTA 1 R/B, 2436 is space debris in SSO originally from a launch on Sun, 02 Oct 1966 UTC launched from the Air Force Western Test Range (AFWTR). Debris objects in space refer to the collection of defunct objects orbiting the Earth. Examples of debris include non-operational satellites, rocket bodies, and fragments generated from explosions, collisions, or faulty payload assembly.

Loading next visibility...
DELTA 1 R/B details
Identifier
2436, 1966-087B
Orbit
SSO
Last TLE update10 hours ago
Origin
Flag of USGSFC (US)
ManufacturerABL
MissionSpacecraft
Bus & MotorALTAIR, Unknown motor
Mass33 kg wet, 33 kg dry
Launch date (UTC)
1966-10-02 (58 years ago)
Launch vehicleUnknown
Launch site
Air Force Western Test Range (AFWTR)
Object type
Payload
Rocket body
Debris
Shape & HBRCyl, 1.5 m
Radar Cross Section0.687 m², Medium (>0.1 m² and < 1m²)

Expand to show TLE details & history

TLE from 10 hours ago
0 DELTA 1 R/B
1 02436U 66087B   25015.54693141 -.00000022  00000-0  11056-3 0  9999
2 02436 100.9684 357.3020 0065457 346.3405  13.5901 12.57648066675032
Epoch: 2025-01-15T13:07Z
Definitive object data (Epoch: 2025-01-15T13:07:34.873Z)
Latitude0.00004°
Longitude45.16898°
Altitude1,385.595 km
Speed7.189 km/s
True Right ascension23h 49m 12s
True Declination0° 00' 00"
Sunlit
Object was in daylight at TLE epoch
Visualization TLE readout
Latitude76.34647°
Longitude-6.99711°
Altitude1,450.745 km
Speed7.141 km/s
Apparent Right ascension13h 13m 07s
Apparent Declination41° 05' 57"
Sunlit
Object is in daylight
Visualization observer readout
Local Sidereal Time23:48:14
Azimuth344.058° N
Elevation-6.718°
Doppler factor1
Orbital elements
Apogee altitude1,481.27 km
Perigee altitude1,379.049 km
Semi-major axis7,808.296 km
Eccentricity0.0065457
Inclination100.9684°
RAAN357.302°
Arg. of periapsis346.3405°
True anomaly13.76776°
Mean anomaly13.5901°
Eccentric anomaly13.67879°
Mean motion3.14564 °/min
BSTAR0.00011056
Orbital period114.44 mins
Loading maneuver chart data...
Loading historical data...
Loading historical data...
Loading historical data...
Loading historical data...
Loading historical data...
Loading historical data...
Loading historical data...

DELTA 1 R/B Visibility forecast

Observer location: undefined°, undefined

Span
Click to sort rows by Start time (UTC) header in descending order
Start Az.
Max El. time (UTC)
Max El. Az.
Max El.
End time (UTC)
End Az.
14 mins2025-01-16 10:46:07.189Z33.537° NE2025-01-16 10:53:07.189Z108.474° ESE34.97°2025-01-16 11:00:07.189Z168.633° S
13 mins2025-01-16 12:39:07.189Z357.594° N2025-01-16 12:45:07.189Z295.26° NW34.033°2025-01-16 12:52:07.189Z232.494° WSW
14 mins2025-01-16 21:42:07.189Z135.317° SSE2025-01-16 21:49:07.189Z54.883° ENE37.952°2025-01-16 21:56:07.189Z353.725° N
|